Location: La Comballaz
(46.3780°N, 7.0817°E)
Time: 08:51:15
(UTC+00:00)

FALCON 9 DEB - Pass Details

Date: 09 April 2020
Orbit: 429 x 441 km, 53.0° (Epoch: 23 May)

Event Time Altitude Azimuth Distance (km) Brightness Sun altitude
Rises 19:26:02 0° 238° (WSW) 2,423 7.4 -12.9°
Reaches altitude 10° 19:28:09 10° 239° (WSW) 1,556 6.4 -13.2°
Maximum altitude 19:31:39 90° 276° (W) 447 3.1 -13.7°
Enters shadow 19:35:01 11° 60° (ENE) 1,501 5.5 -14.3°
